OREBRO PRIVATE current weather conditions

sailwx.info

Wind from 230 at 7 knots

Air temperature -1.0° C
Visibility: greater than 5.4 NM
Dewpoint -4.0° C

Last reported at 2014-Dec-21 04:20 UTC.
Time now 2014-Dec-21 06:52 UTC

Location: N 59°14' E 015°03'.
View on Google Maps.

See reports from other nearby stations

  
Tides and Currents Weather Stations Pressure Air Temp Water Temp Dewpoint Dewpoint Depression Visibility Wind Speed Wind Dir Waves Ship Positions
date/time (UTC)wind fromknots sea level pressurealtimeterstation pressurevisibilityair tempwater tempwave heightnotes
2014-Dec-21 05:20 300 5 -2.0
2014-Dec-21 04:50 270 6 5.4-1.0
2014-Dec-21 04:20 230 7 5.4-1.0
2014-Dec-21 03:50 270 6 5.4-2.0
2014-Dec-21 03:20 240 8 5.4-1.0
2014-Dec-21 02:50 200 5 5.4-2.0
2014-Dec-21 02:20 270 4 5.4-2.0
2014-Dec-21 01:50 290 9 5.4-2.0
2014-Dec-21 01:20 290 10 gusting 20 5.4-1.0
2014-Dec-21 00:50 290 11 5.4-1.0
2014-Dec-21 00:20 300 12 5.4-1.0
2014-Dec-20 23:50 280 13 5.4-1.0
2014-Dec-20 23:20 270 5 5.4-2.0
2014-Dec-20 22:50 290 7 5.4-1.0
2014-Dec-20 22:20 280 6 5.4-1.0
2014-Dec-20 21:50 290 10 5.4-1.0
2014-Dec-20 21:20 290 9 5.4-1.0
2014-Dec-20 20:50 280 8 5.4-1.0
2014-Dec-20 20:20 290 6 5.4-1.0
2014-Dec-20 19:50 280 9 5.4-1.0
2014-Dec-20 19:20 270 7 -1.0
2014-Dec-20 18:50 280 6 -0.0
2014-Dec-20 18:20 280 7 -1.0
2014-Dec-20 17:50 280 6 -1.0
2014-Dec-20 17:20 270 7 5.4-1.0
2014-Dec-20 16:50 280 7 5.4-0.0
2014-Dec-20 16:20 270 7 5.4-0.0
2014-Dec-20 15:50 280 9 5.4 1.0
2014-Dec-20 15:20 250 6 5.4 1.0
2014-Dec-20 14:50 270 8 5.4 2.0
2014-Dec-20 14:20 240 5 5.4 2.0
2014-Dec-20 13:50 270 6 5.4 3.0
2014-Dec-20 13:20 270 6 5.4 4.0
2014-Dec-20 12:50 270 6 5.4 3.0
2014-Dec-20 12:20 240 6 5.4 4.0
2014-Dec-20 11:50 230 6 5.4 4.0
2014-Dec-20 11:20 230 5 5.4 4.0
2014-Dec-20 10:50 220 6 5.4 4.0
2014-Dec-20 10:20 240 6 5.4 3.0
2014-Dec-20 09:50 240 5 5.4 3.0
2014-Dec-20 09:20 220 7 5.4 2.0
2014-Dec-20 08:50 220 5 5.4 1.0
2014-Dec-20 08:20 230 5 5.4 3.0
2014-Dec-20 07:50 230 6 5.4 2.0
2014-Dec-20 07:20 250 7 5.4 3.0
2014-Dec-20 06:50 240 9 5.4 3.0
2014-Dec-20 06:20 240 8 5.4 3.0
2014-Dec-20 05:50 240 9 5.4 4.0
2014-Dec-20 05:20 240 11 5.4 4.0
2014-Dec-20 04:50 240 10 5.4 5.0
2014-Dec-20 04:20 260 10 5.4 5.0
2014-Dec-20 03:50 260 10 5.4 4.0
2014-Dec-20 03:20 260 13 5.4 5.0
2014-Dec-20 02:50 240 12 5.4 5.0
2014-Dec-20 02:20 240 11 gusting 20 5.4 4.0
2014-Dec-20 01:50 250 10 5.4 4.0
2014-Dec-20 01:20 230 11 5.4 4.0
2014-Dec-20 00:50 240 14 5.4 4.0
2014-Dec-20 00:20 240 12 5.4 4.0
2014-Dec-19 23:50 260 13 5.4 4.0
2014-Dec-19 23:20 240 14 5.4 4.0
2014-Dec-19 22:50 250 13 5.4 4.0
2014-Dec-19 22:20 240 13 gusting 24 5.4 4.0
2014-Dec-19 21:50 240 15 5.4 4.0
2014-Dec-19 21:20 240 12 5.4 4.0
2014-Dec-19 20:50 230 13 5.4 4.0
2014-Dec-19 20:20 250 12 gusting 24 5.4 4.0
2014-Dec-19 19:50 240 12 5.4 4.0
2014-Dec-19 18:50 250 14 5.4 4.0
2014-Dec-19 18:20 240 14 gusting 24 5.4 4.0
2014-Dec-19 17:50 220 14 5.4 4.0
2014-Dec-19 17:20 220 16 gusting 26 5.4 4.0
2014-Dec-19 16:50 220 16 5.4 4.0 Light drizzle.
2014-Dec-19 16:20 220 15 5.0
2014-Dec-19 15:50 240 14 5.0
2014-Dec-19 15:20 240 13 5.0
2014-Dec-19 14:50 250 13 5.4 4.0
2014-Dec-19 14:20 240 12 5.0
2014-Dec-19 13:50 250 11 5.0
2014-Dec-19 13:20 250 11 5.4 5.0
2014-Dec-19 12:50 240 12 5.4 6.0
2014-Dec-19 12:20 240 12 5.4 5.0
2014-Dec-19 11:50 240 12 5.4 5.0
2014-Dec-19 11:20 240 13 5.4 5.0
2014-Dec-19 10:50 240 14 gusting 26 5.4 6.0
2014-Dec-19 10:20 250 14 gusting 24 5.4 6.0
2014-Dec-19 09:50 240 15 gusting 27 5.4 6.0
2014-Dec-19 09:20 240 15 5.4 6.0
2014-Dec-19 08:50 250 12 5.4 6.0
2014-Dec-19 08:20 240 12 5.4 6.0
2014-Dec-19 07:50 240 12 5.4 6.0
2014-Dec-19 07:20 250 12 5.4 5.0
2014-Dec-19 06:50 250 11 5.4 6.0
2014-Dec-19 06:20 250 11 5.4 6.0